ONEWEB-0281 (48999 NORAD) Tracking and Keplerian Element Data

This shows tracking and keplerian element data for the satellite.

Feedback or suggestion? Click here.




ElementValue
Catalog48999
NameONEWEB-0281
Epoch Orbit568
Epoch Day211.25001157
Epoch Year2021
RAAN227.3779
Inclination87.4702
Eccentricity0.0010554
Argument of Perigee160.3503
Mean Anonmoly170.3742
Mean Motion15.02392945
Decay Rate-0.01434943
L11 48999U 21060AJ 21211.25001157 -.01434943 00000-0 -11845+0 0 9994
L22 48999 87.4702 227.3779 0010554 160.3503 170.3742 15.02392945 5682

Live tracking and technical data element details for ONEWEB-0281 (NORAD 48999). ONEWEB-0281 can be tracked NOW for your location showing map with azimuth and elevation plus other details from your city location.

Track the satellite on the map from your city or location and see movement details for azimuth, elevation, latitude, longitude, range, height, and movement on the map or in text.







IsCatalogInMostPopularTable: catalog: 48999, numindb: 4
Update: records affected: 1



GetName: 48999 ONEWEB-0281

Hit Count: updated at: Sat, 31 Jul 2021 14:17:05 GMT